When you browse on this site, cookies collect data to enhance your experience and personalize the content and advertising you see.
Visit our Privacy Policy to learn more. By continuing to use the site, you agree to this use of cookies and data.

Meteo pe oră la Dzibice

Astăzi, 21 Septembrie, Luni

Timp Temperatura Precipitaţii Vânt Presiune Umiditate
00:00 +12°C° 0 mm 2 m/s 736 mmHg 79%
01:00 +12°C° 0 mm 1 m/s 736 mmHg 80%
02:00 +12°C° 0 mm 1 m/s 736 mmHg 81%
03:00 +11°C° 0 mm 1 m/s 736 mmHg 81%
04:00 +11°C° 0 mm 1 m/s 735 mmHg 82%
05:00 +12°C° 0 mm 1 m/s 736 mmHg 79%
06:00 +13°C° 0 mm 1 m/s 736 mmHg 75%
07:00 +13°C° 0 mm 0 m/s 736 mmHg 72%
08:00 +16°C° 0 mm 1 m/s 736 mmHg 65%
09:00 +19°C° 0 mm 1 m/s 736 mmHg 57%
10:00 +21°C° 0 mm 1 m/s 736 mmHg 50%
11:00 +22°C° 0 mm 1 m/s 736 mmHg 46%
12:00 +24°C° 0 mm 1 m/s 736 mmHg 41%
13:00 +23°C° 0 mm 0 m/s 736 mmHg 37%
14:00 +23°C° 0 mm 0 m/s 736 mmHg 38%
15:00 +22°C° 0 mm 0 m/s 736 mmHg 39%
16:00 +24°C° 0 mm 1 m/s 735 mmHg 41%
17:00 +22°C° 0 mm 1 m/s 735 mmHg 45%
18:00 +20°C° 0 mm 1 m/s 735 mmHg 50%
19:00 +17°C° 0 mm 2 m/s 735 mmHg 54%
20:00 +17°C° 0 mm 2 m/s 735 mmHg 55%
21:00 +17°C° 0 mm 2 m/s 735 mmHg 56%
22:00 +16°C° 0 mm 2 m/s 735 mmHg 57%
23:00 +16°C° 0 mm 2 m/s 735 mmHg 57%

Mâine, 22 Septembrie, Marţi

Timp Temperatura Precipitaţii Vânt Presiune Umiditate
00:00 +16°C° 0 mm 2 m/s 735 mmHg 58%
01:00 +15°C° 0 mm 2 m/s 735 mmHg 58%
02:00 +15°C° 0 mm 2 m/s 734 mmHg 59%
03:00 +15°C° 0 mm 2 m/s 734 mmHg 60%
04:00 +15°C° 0 mm 2 m/s 734 mmHg 61%
05:00 +15°C° 0 mm 2 m/s 734 mmHg 61%
06:00 +16°C° 0 mm 2 m/s 734 mmHg 61%
07:00 +16°C° 0 mm 2 m/s 734 mmHg 61%
08:00 +19°C° 0 mm 2 m/s 734 mmHg 55%
09:00 +21°C° 0 mm 2 m/s 734 mmHg 49%
10:00 +24°C° 0 mm 3 m/s 734 mmHg 43%
11:00 +25°C° 0 mm 3 m/s 734 mmHg 40%
12:00 +26°C° 0 mm 3 m/s 733 mmHg 37%
13:00 +27°C° 0 mm 3 m/s 733 mmHg 34%
14:00 +26°C° 0 mm 3 m/s 733 mmHg 37%
15:00 +26°C° 0 mm 2 m/s 732 mmHg 40%
16:00 +26°C° 0 mm 2 m/s 732 mmHg 43%
17:00 +24°C° 0 mm 2 m/s 732 mmHg 46%
18:00 +21°C° 0 mm 2 m/s 731 mmHg 49%
19:00 +19°C° 0 mm 2 m/s 731 mmHg 52%
20:00 +19°C° 0 mm 2 m/s 731 mmHg 53%
21:00 +18°C° 0 mm 2 m/s 731 mmHg 54%
22:00 +19°C° 0 mm 1 m/s 731 mmHg 55%
23:00 +18°C° 0 mm 2 m/s 731 mmHg 55%

Poimâine, 23 Septembrie, Miercuri

Timp Temperatura Precipitaţii Vânt Presiune Umiditate
00:00 +17°C° 0 mm 2 m/s 731 mmHg 55%
01:00 +17°C° 0 mm 2 m/s 730 mmHg 55%
02:00 +17°C° 0 mm 2 m/s 730 mmHg 55%
03:00 +17°C° 0 mm 2 m/s 730 mmHg 55%
04:00 +16°C° 0 mm 3 m/s 729 mmHg 56%
05:00 +17°C° 0 mm 3 m/s 729 mmHg 56%
06:00 +17°C° 0 mm 3 m/s 729 mmHg 56%
07:00 +18°C° 0 mm 3 m/s 729 mmHg 55%
08:00 +20°C° 0 mm 3 m/s 729 mmHg 50%
09:00 +22°C° 0 mm 3 m/s 729 mmHg 45%
10:00 +26°C° 0 mm 3 m/s 729 mmHg 40%
11:00 +26°C° 0 mm 3 m/s 729 mmHg 40%
12:00 +27°C° 0 mm 3 m/s 729 mmHg 40%
13:00 +27°C° 0 mm 3 m/s 729 mmHg 39%
14:00 +27°C° 0 mm 2 m/s 729 mmHg 42%
15:00 +26°C° 0 mm 2 m/s 728 mmHg 45%
16:00 +26°C° 0 mm 2 m/s 728 mmHg 49%
17:00 +24°C° 0.2 mm 2 m/s 728 mmHg 54%
18:00 +21°C° 0.2 mm 2 m/s 728 mmHg 60%
19:00 +21°C° 0.2 mm 1 m/s 728 mmHg 66%
20:00 +20°C° 0.1 mm 1 m/s 728 mmHg 68%
21:00 +20°C° 0.1 mm 1 m/s 728 mmHg 70%
22:00 +19°C° 0.1 mm 1 m/s 728 mmHg 73%
23:00 +19°C° 0 mm 1 m/s 728 mmHg 74%

24 Septembrie, Joi

Timp Temperatura Precipitaţii Vânt Presiune Umiditate
00:00 +19°C° 0 mm 1 m/s 728 mmHg 76%
01:00 +18°C° 0 mm 1 m/s 728 mmHg 77%
02:00 +18°C° 0 mm 1 m/s 728 mmHg 79%
03:00 +18°C° 0 mm 1 m/s 728 mmHg 80%
04:00 +16°C° 0 mm 1 m/s 728 mmHg 81%
05:00 +17°C° 0 mm 2 m/s 728 mmHg 80%
06:00 +17°C° 0 mm 2 m/s 728 mmHg 79%
07:00 +18°C° 0 mm 2 m/s 729 mmHg 78%
08:00 +19°C° 0 mm 3 m/s 729 mmHg 73%
09:00 +21°C° 0 mm 3 m/s 729 mmHg 67%
10:00 +22°C° 0 mm 4 m/s 729 mmHg 62%
11:00 +23°C° 0 mm 4 m/s 729 mmHg 58%
12:00 +25°C° 0 mm 4 m/s 730 mmHg 55%
13:00 +26°C° 0 mm 3 m/s 730 mmHg 52%
14:00 +25°C° 0 mm 3 m/s 730 mmHg 52%
15:00 +25°C° 0 mm 3 m/s 730 mmHg 53%
16:00 +25°C° 0 mm 2 m/s 730 mmHg 54%
17:00 +24°C° 0 mm 2 m/s 730 mmHg 59%
18:00 +21°C° 0 mm 2 m/s 730 mmHg 63%
19:00 +20°C° 0 mm 2 m/s 730 mmHg 68%
20:00 +19°C° 0 mm 2 m/s 730 mmHg 70%
21:00 +20°C° 0 mm 1 m/s 730 mmHg 72%
22:00 +20°C° 0 mm 1 m/s 730 mmHg 74%
23:00 +19°C° 0 mm 1 m/s 730 mmHg 76%

25 Septembrie, Vineri

Timp Temperatura Precipitaţii Vânt Presiune Umiditate
00:00 +18°C° 0 mm 2 m/s 729 mmHg 78%
01:00 +17°C° 0 mm 2 m/s 729 mmHg 80%
02:00 +17°C° 0 mm 2 m/s 728 mmHg 81%
03:00 +17°C° 0 mm 2 m/s 728 mmHg 82%
04:00 +16°C° 0 mm 3 m/s 727 mmHg 83%
05:00 +17°C° 0 mm 3 m/s 727 mmHg 81%
06:00 +17°C° 0 mm 3 m/s 727 mmHg 79%
07:00 +17°C° 0 mm 3 m/s 726 mmHg 78%
08:00 +20°C° 0 mm 4 m/s 726 mmHg 69%
09:00 +22°C° 0 mm 5 m/s 726 mmHg 61%
10:00 +25°C° 0 mm 5 m/s 725 mmHg 52%
11:00 +24°C° 0 mm 6 m/s 725 mmHg 51%
12:00 +26°C° 0 mm 6 m/s 725 mmHg 50%
13:00 +26°C° 0 mm 6 m/s 725 mmHg 49%
14:00 +25°C° 0.1 mm 5 m/s 724 mmHg 53%
15:00 +23°C° 0.1 mm 5 m/s 723 mmHg 57%
16:00 +22°C° 0.1 mm 5 m/s 723 mmHg 61%
17:00 +21°C° 0.1 mm 5 m/s 722 mmHg 62%
18:00 +21°C° 0.1 mm 5 m/s 722 mmHg 64%
19:00 +21°C° 0.1 mm 6 m/s 722 mmHg 65%
20:00 +20°C° 0.2 mm 6 m/s 721 mmHg 68%
21:00 +20°C° 0.2 mm 5 m/s 721 mmHg 71%
22:00 +19°C° 0.2 mm 5 m/s 721 mmHg 74%
23:00 +19°C° 0.2 mm 5 m/s 720 mmHg 76%

26 Septembrie, Sâmbătă

Timp Temperatura Precipitaţii Vânt Presiune Umiditate
00:00 +18°C° 0.2 mm 4 m/s 720 mmHg 78%
01:00 +18°C° 0.2 mm 3 m/s 720 mmHg 81%
02:00 +17°C° 1 mm 3 m/s 719 mmHg 84%
03:00 +16°C° 1 mm 2 m/s 719 mmHg 88%
04:00 +16°C° 1 mm 2 m/s 719 mmHg 92%
05:00 +14°C° 0.6 mm 3 m/s 719 mmHg 92%
06:00 +13°C° 0.6 mm 4 m/s 719 mmHg 92%
07:00 +12°C° 0.6 mm 5 m/s 719 mmHg 91%
08:00 +12°C° 0 mm 4 m/s 720 mmHg 88%
09:00 +13°C° 0 mm 4 m/s 720 mmHg 85%
10:00 +13°C° 0 mm 3 m/s 721 mmHg 82%
11:00 +14°C° 0 mm 3 m/s 721 mmHg 80%
12:00 +14°C° 0 mm 3 m/s 721 mmHg 77%
13:00 +16°C° 0 mm 3 m/s 722 mmHg 74%
14:00 +14°C° 0 mm 3 m/s 721 mmHg 75%
15:00 +14°C° 0 mm 4 m/s 721 mmHg 75%
16:00 +14°C° 0 mm 4 m/s 721 mmHg 76%
17:00 +14°C° 2.5 mm 5 m/s 720 mmHg 81%
18:00 +13°C° 2.5 mm 5 m/s 720 mmHg 86%
19:00 +12°C° 2.5 mm 5 m/s 719 mmHg 91%
20:00 +13°C° 3.1 mm 6 m/s 719 mmHg 92%
21:00 +13°C° 3.1 mm 6 m/s 718 mmHg 94%
22:00 +13°C° 3.1 mm 6 m/s 718 mmHg 95%
23:00 +13°C° 0.7 mm 5 m/s 717 mmHg 95%
Arată mai mult